Погода в Полесском

Украина / Ровненская область     50°50′39″N   26°48′04″E
темп.,
°C
ветер,
м/с
пор.,
м/с
влажн.,
%
обл.,
%
осадки,
мм/ч
давл.,
гПа
погр.,
м
12 мая, ср
ср1200:00+12вюв39844 0.0 1017155
03:00+10вюв38930 0.0 1016151
06:00+10в389817 0.0 1016178
09:00+12вюв6108394 0.0 1016667
12:00+15вюв79520 0.0 10151284
15:00+16вюв794913 0.0 10151715
18:00+13вюв796032 0.0 10151433
21:00+11вюв496435 0.0 1013635
13 мая, чт
чт1300:00+7вюв378627 0.0 1012133
03:00+6юв368723 0.0 1011116
06:00+5юв3790100 0.0 1009150
09:00+11юв59655 0.0 1008692
12:00+15ююв7957100 0.0 10061583
15:00+13ююв71071100 0.0 10061090
18:00+13ююв61276100 0.0 1005974
21:00+14ююв61278100 0.1 1005906
14 мая, пт
пт1400:00+10ююв51292100 0.0 1005508
03:00+11ююв4992100 0.0 1005503
06:00+11ююв4895100 0.1 1005326
09:00+11ююв3594100 0.3 1006249
12:00+17зюз4559100 0.3 10061414
15:00+17зюз3463100 0.5 10061037
18:00+15зюз3575100 0.6 1007356
21:00+13з4882100 0.6 1008434
15 мая, сб
сб1500:00+9з3893100 0.0 1010229
03:00+8зюз31095100 0.0 1010283
06:00+9зюз31090100 0.0 1010438
09:00+13з46759 0.0 1011556
12:00+17з455591 0.0 10111485
15:00+19зюз344935 0.0 10101829
18:00+19ююз2350100 0.0 10101574
21:00+15юв2261100 0.0 101032
16 мая, вс
вс1600:00+13юв367435 0.0 1011120
03:00+10вюв388185 0.0 1011135
06:00+10вюв41082100 0.0 1011199
09:00+16вюв6116569 0.0 1011540
12:00+19вюв7955100 0.0 10101184
15:00+20вюв7955100 0.0 10091390
18:00+18вюв51066100 0.1 1008916
21:00+14вюв3996100 3.6 1009338